User: anonymous   Login
Location: Brno
(49.2000°N, 16.6330°E)
Time: 08:46:07
(UTC+02:00)
Language:

BREEZE M DEB (TANK) - Orbit

View from above orbital plane
View from above orbital plane
View from above satellite
View from above satellite

Ground track
Ground track

The orbit data is extracted from the following two-line orbital elements,

1 28359U 04022B   15242.78161483  .00002751  00000-0  33392-3 0  9995
2 28359 049.5304 340.6203 4696037 031.1222 073.8030 06.15934955244680
Epoch (UTC): 30 August 2015 18:45:31
Eccentricity: 0.4696037
inclination: 49.5304°
perigee height: 289 km
apogee height: 12096 km
right ascension of ascending node: 340.6203°
argument of perigee: 31.1222°
revolutions per day: 6.15934955
mean anomaly at epoch: 73.8030°
orbit number at epoch: 24468

The dashed part of the orbit path shows where the satellite is in the earth's shadow,  

DLR